Погода в Монте-Горду

Португалия     37°10′56″N   7°27′04″W
темп.,
°C
ветер,
м/с
пор.,
м/с
влажн.,
%
обл.,
%
осадки,
мм/ч
давл.,
гПа
погр.,
м
4 июля, пн
пн401:00+18сз11830 0.0 101914
04:00+17с11880 0.0 101811
07:00+17ссв22860 0.0 101853
10:00+23в22590 0.0 1018737
13:00+28ю53420 0.0 10171032
16:00+27ююз64460 0.0 1016559
19:00+29юз55380 0.0 1014548
22:00+23зсз23580 0.0 101633
5 июля, вт
вт501:00+20ссв22710 0.0 101721
04:00+17с22780 0.0 101623
07:00+18с22790 0.0 101746
10:00+26св11450 0.0 1017640
13:00+31ю54270 0.0 10161210
16:00+30ююз76290 0.0 1015731
19:00+31юз67250 0.0 1014772
22:00+23сз34530 0.0 101771
6 июля, ср
ср601:00+19с34690 0.0 101869
04:00+18ссз33770 0.0 101737
07:00+18с23780 0.0 101872
10:00+26св22410 0.0 1019665
13:00+32ююв33260 0.0 10181422
16:00+31ююз64310 0.0 1017676
19:00+32юз65270 0.0 1016618
22:00+26сз59400 0.0 1017207
7 июля, чт
чт701:00+23ссз47560 0.0 1018117
04:00+21сз22620 0.0 101723
07:00+22ссз23600 0.0 101849
10:00+30в44340 0.0 1018635
13:00+34юв43270 0.0 1018941
16:00+36ю43200 0.0 10171113
19:00+34юз55210 0.0 1016404
22:00+28зсз33350 0.0 101827
8 июля, пт
пт801:00+25ссв01400 0.0 101812
04:00+22ю12630 0.0 101811
07:00+22ю310770 0.0 1019280
10:00+29ю33470 0.0 1018499
13:00+35ю43310 0.0 1018938
16:00+36ю54250 0.0 1016653
19:00+35юз67250 0.0 1015604
22:00+29сз23380 0.0 101647